sat.trackr.live / text

‹ back to catalog

ONEWEB-0271

NORAD 48989 · 2021-060Y

PAYLOAD ACTIVE UNKNOWN

§ Identity

Operator
Country
UK
Launch date
2021-07-01
Launch site
VOSTO
Launch vehicle
Mass (kg)
RCS (m²)

Purposes: comms

External: N2YO · Heavens-Above · Gunter

§ Orbital elements

Epoch: 2026-05-24T23:48:08.788032Z

Period
109.37 min
Inclination
87.9105°
Eccentricity
0.0001778
Mean motion
13.16593163 rev/d
Perigee alt
1,196.4 km
Apogee alt
1,199.1 km
Semi-major
7,575.9 km
B*
-3.3282e-5
RAAN
233.3783°
Arg perigee
95.7889°
Mean anomaly
264.3445°
Rev number
23,661

§ Raw data

ONEWEB-02711 48989U 21060Y   26144.99176838  .00000000  00000+0 -33282-4 0  99972 48989  87.9105 233.3783 0001778  95.7889 264.3445 13.16593163236612

JSON: /api/v1/satellites/48989 · /tle

For live sub-satellite position, see the globe view (requires WebGL).

§ Visibility from observer

Set your observer location to see the next 7 days of passes ≥ 10°. The values pass through the URL so the page stays shareable.

No JS? Fill the form by hand. The geolocation button needs JavaScript.